Hourly Weather Ruda

Today, 14 April, Wednesday

Time Temperature Precipitation Wind Pressure Humidity
00:00 +8°C° 0.1 mm 4 mps 745 mmHg 81%
01:00 +7°C° 0.1 mm 4 mps 745 mmHg 82%
02:00 +7°C° 0 mm 4 mps 745 mmHg 86%
03:00 +7°C° 0.4 mm 4 mps 745 mmHg 87%
04:00 +7°C° 0.4 mm 4 mps 744 mmHg 88%
05:00 +6°C° 0.4 mm 4 mps 744 mmHg 89%
06:00 +6°C° 0.2 mm 4 mps 744 mmHg 88%
07:00 +6°C° 0.2 mm 4 mps 744 mmHg 87%
08:00 +6°C° 0.2 mm 4 mps 744 mmHg 86%
09:00 +7°C° 0.2 mm 4 mps 744 mmHg 81%
10:00 +8°C° 0.2 mm 4 mps 744 mmHg 75%
11:00 +10°C° 0.2 mm 4 mps 744 mmHg 69%
12:00 +11°C° 0 mm 4 mps 744 mmHg 64%
13:00 +13°C° 0 mm 3 mps 744 mmHg 58%
14:00 +14°C° 0 mm 3 mps 743 mmHg 53%
15:00 +13°C° 0 mm 3 mps 743 mmHg 56%
16:00 +14°C° 0 mm 2 mps 743 mmHg 59%
17:00 +13°C° 0 mm 2 mps 743 mmHg 62%
18:00 +13°C° 0 mm 2 mps 743 mmHg 65%
19:00 +12°C° 0 mm 2 mps 743 mmHg 67%
20:00 +12°C° 0 mm 2 mps 743 mmHg 69%
21:00 +10°C° 0.1 mm 2 mps 743 mmHg 71%
22:00 +10°C° 0.1 mm 2 mps 743 mmHg 73%
23:00 +10°C° 0.1 mm 2 mps 743 mmHg 74%

Tomorrow, 15 April, Thursday

Time Temperature Precipitation Wind Pressure Humidity
00:00 +9°C° 0 mm 2 mps 743 mmHg 75%
01:00 +9°C° 0 mm 2 mps 742 mmHg 77%
02:00 +8°C° 0 mm 2 mps 742 mmHg 78%
03:00 +8°C° 0 mm 2 mps 742 mmHg 80%
04:00 +8°C° 0 mm 2 mps 742 mmHg 82%
05:00 +7°C° 0 mm 2 mps 742 mmHg 84%
06:00 +8°C° 0.1 mm 2 mps 742 mmHg 82%
07:00 +9°C° 0.1 mm 2 mps 742 mmHg 80%
08:00 +10°C° 0.1 mm 2 mps 742 mmHg 77%
09:00 +11°C° 0.4 mm 3 mps 742 mmHg 71%
10:00 +12°C° 0.4 mm 3 mps 742 mmHg 64%
11:00 +13°C° 0.4 mm 3 mps 742 mmHg 58%
12:00 +13°C° 0.3 mm 3 mps 742 mmHg 57%
13:00 +14°C° 0.3 mm 3 mps 741 mmHg 56%
14:00 +15°C° 0.3 mm 2 mps 741 mmHg 55%
15:00 +14°C° 0.3 mm 2 mps 741 mmHg 59%
16:00 +14°C° 0.3 mm 2 mps 741 mmHg 63%
17:00 +13°C° 0.3 mm 2 mps 741 mmHg 66%
18:00 +12°C° 0.4 mm 2 mps 741 mmHg 73%
19:00 +10°C° 0.4 mm 2 mps 741 mmHg 79%
20:00 +9°C° 0.4 mm 2 mps 741 mmHg 85%
21:00 +9°C° 0.6 mm 2 mps 741 mmHg 87%
22:00 +9°C° 0.6 mm 2 mps 741 mmHg 89%
23:00 +10°C° 0.6 mm 1 mps 741 mmHg 91%

Day after tomorrow, 16 April, Friday

Time Temperature Precipitation Wind Pressure Humidity
00:00 +9°C° 0.3 mm 2 mps 741 mmHg 91%
01:00 +8°C° 0.3 mm 2 mps 740 mmHg 92%
02:00 +8°C° 0.3 mm 2 mps 740 mmHg 93%
03:00 +8°C° 0.2 mm 2 mps 740 mmHg 93%
04:00 +8°C° 0.2 mm 3 mps 740 mmHg 94%
05:00 +8°C° 0.2 mm 3 mps 740 mmHg 95%
06:00 +8°C° 0.5 mm 3 mps 740 mmHg 94%
07:00 +8°C° 0.5 mm 3 mps 740 mmHg 93%
08:00 +8°C° 0.5 mm 3 mps 740 mmHg 93%
09:00 +8°C° 1 mm 3 mps 741 mmHg 92%
10:00 +8°C° 1 mm 3 mps 741 mmHg 92%
11:00 +8°C° 1 mm 3 mps 741 mmHg 92%
12:00 +8°C° 0.8 mm 3 mps 741 mmHg 92%
13:00 +8°C° 0.8 mm 3 mps 742 mmHg 92%
14:00 +7°C° 0.8 mm 4 mps 742 mmHg 91%
15:00 +6°C° 0.7 mm 4 mps 742 mmHg 92%
16:00 +6°C° 0.7 mm 4 mps 743 mmHg 93%
17:00 +5°C° 0.7 mm 4 mps 743 mmHg 93%
18:00 +5°C° 0.2 mm 4 mps 743 mmHg 93%
19:00 +5°C° 0.2 mm 4 mps 744 mmHg 93%
20:00 +4°C° 0.2 mm 4 mps 744 mmHg 93%
21:00 +4°C° 0 mm 3 mps 745 mmHg 93%
22:00 +4°C° 0 mm 3 mps 745 mmHg 94%
23:00 +3°C° 0 mm 3 mps 745 mmHg 95%

17 April, Saturday

Time Temperature Precipitation Wind Pressure Humidity
00:00 +3°C° 0 mm 3 mps 745 mmHg 95%
01:00 +3°C° 0 mm 3 mps 745 mmHg 95%
02:00 +4°C° 0 mm 2 mps 746 mmHg 95%
03:00 +4°C° 0 mm 2 mps 746 mmHg 95%
04:00 +4°C° 0 mm 2 mps 746 mmHg 94%
05:00 +4°C° 0 mm 2 mps 746 mmHg 94%
06:00 +4°C° 0 mm 2 mps 747 mmHg 93%
07:00 +5°C° 0 mm 1 mps 747 mmHg 92%
08:00 +6°C° 0 mm 1 mps 747 mmHg 91%
09:00 +6°C° 0 mm 1 mps 748 mmHg 90%
10:00 +6°C° 0 mm 1 mps 748 mmHg 89%
11:00 +7°C° 0 mm 1 mps 748 mmHg 87%
12:00 +7°C° 0 mm 1 mps 748 mmHg 86%
13:00 +7°C° 0 mm 1 mps 748 mmHg 84%
14:00 +8°C° 0 mm 1 mps 749 mmHg 83%
15:00 +8°C° 0 mm 1 mps 749 mmHg 81%
16:00 +8°C° 0 mm 1 mps 749 mmHg 80%
17:00 +8°C° 0 mm 1 mps 749 mmHg 79%
18:00 +8°C° 0 mm 1 mps 749 mmHg 82%
19:00 +7°C° 0 mm 2 mps 749 mmHg 85%
20:00 +6°C° 0 mm 2 mps 749 mmHg 88%
21:00 +6°C° 0 mm 2 mps 749 mmHg 88%
22:00 +5°C° 0 mm 2 mps 749 mmHg 89%
23:00 +5°C° 0 mm 2 mps 749 mmHg 89%

18 April, Sunday

Time Temperature Precipitation Wind Pressure Humidity
00:00 +5°C° 0 mm 2 mps 749 mmHg 90%
01:00 +4°C° 0 mm 2 mps 748 mmHg 91%
02:00 +4°C° 0 mm 2 mps 748 mmHg 92%
03:00 +3°C° 0 mm 2 mps 748 mmHg 92%
04:00 +3°C° 0 mm 2 mps 748 mmHg 92%
05:00 +3°C° 0 mm 2 mps 748 mmHg 93%
06:00 +4°C° 0 mm 2 mps 748 mmHg 90%
07:00 +5°C° 0 mm 2 mps 748 mmHg 87%
08:00 +6°C° 0 mm 2 mps 748 mmHg 84%
09:00 +7°C° 0 mm 2 mps 748 mmHg 84%
10:00 +7°C° 0 mm 2 mps 749 mmHg 85%
11:00 +9°C° 0 mm 1 mps 749 mmHg 85%
12:00 +9°C° 0 mm 1 mps 749 mmHg 83%
13:00 +10°C° 0 mm 1 mps 749 mmHg 81%
14:00 +11°C° 0 mm 1 mps 749 mmHg 79%
15:00 +10°C° 0 mm 2 mps 749 mmHg 79%
16:00 +10°C° 0 mm 2 mps 749 mmHg 79%
17:00 +10°C° 0 mm 2 mps 749 mmHg 79%
18:00 +10°C° 0 mm 2 mps 749 mmHg 81%
19:00 +9°C° 0 mm 2 mps 749 mmHg 84%
20:00 +9°C° 0 mm 2 mps 749 mmHg 87%
21:00 +9°C° 0 mm 2 mps 749 mmHg 89%
22:00 +8°C° 0 mm 3 mps 750 mmHg 91%
23:00 +8°C° 0 mm 3 mps 750 mmHg 92%

19 April, Monday

Time Temperature Precipitation Wind Pressure Humidity
00:00 +8°C° 0 mm 3 mps 750 mmHg 92%
01:00 +8°C° 0 mm 3 mps 750 mmHg 92%
02:00 +8°C° 0 mm 3 mps 750 mmHg 92%
03:00 +8°C° 0 mm 3 mps 750 mmHg 91%
04:00 +8°C° 0 mm 3 mps 750 mmHg 90%
05:00 +7°C° 0 mm 3 mps 750 mmHg 89%
06:00 +8°C° 0 mm 3 mps 750 mmHg 85%
07:00 +8°C° 0 mm 4 mps 751 mmHg 81%
08:00 +8°C° 0 mm 4 mps 751 mmHg 77%
09:00 +11°C° 0 mm 4 mps 751 mmHg 71%
10:00 +12°C° 0 mm 5 mps 751 mmHg 64%
11:00 +13°C° 0 mm 5 mps 751 mmHg 57%
12:00 +14°C° 0 mm 5 mps 750 mmHg 54%
13:00 +15°C° 0 mm 6 mps 750 mmHg 51%
14:00 +16°C° 0 mm 6 mps 750 mmHg 49%
15:00 +15°C° 0 mm 6 mps 749 mmHg 52%
16:00 +15°C° 0 mm 6 mps 749 mmHg 56%
17:00 +14°C° 0 mm 7 mps 748 mmHg 59%
18:00 +12°C° 0 mm 7 mps 748 mmHg 62%
19:00 +11°C° 0 mm 7 mps 748 mmHg 64%
20:00 +10°C° 0 mm 7 mps 748 mmHg 67%
21:00 +9°C° 0 mm 7 mps 747 mmHg 69%
22:00 +9°C° 0 mm 7 mps 747 mmHg 72%
23:00 +8°C° 0 mm 7 mps 747 mmHg 74%
Show more